CEB822 RPUV-RPLL

Flight info

Callsign CEB822
Flight time 0h 45m
Altitude 26000
Route NGA W9 AKDAP AKDAP3R
Aircraft A320/M-SDE3FGHIRWY/LB1

Departure

Time 2026-04-26 13:32
Airport Virac Airport (RPUV)

Arrival

Time 2026-04-26 14:18
Airport Ninoy Aquino International Airport (RPLL)
Time Latitude Longitude Altitude Speed Heading
2026-04-26 13:16 13.57944 124.21172 162 ft 0 kts 178°
2026-04-26 13:25 13.57940 124.21169 162 ft 1 kts 223°
2026-04-26 13:25 13.57942 124.21159 162 ft 2 kts 303°
2026-04-26 13:25 13.57955 124.21142 162 ft 4 kts 307°
2026-04-26 13:25 13.57974 124.21110 162 ft 5 kts 299°
2026-04-26 13:26 13.57996 124.21070 162 ft 6 kts 297°
2026-04-26 13:26 13.57993 124.21024 162 ft 6 kts 240°
2026-04-26 13:26 13.57968 124.20978 162 ft 7 kts 240°
2026-04-26 13:26 13.57940 124.20928 162 ft 8 kts 240°
2026-04-26 13:27 13.57908 124.20870 162 ft 9 kts 240°
2026-04-26 13:27 13.57874 124.20808 162 ft 10 kts 240°
2026-04-26 13:27 13.57837 124.20740 162 ft 11 kts 240°
2026-04-26 13:27 13.57797 124.20669 162 ft 11 kts 240°
2026-04-26 13:28 13.57755 124.20592 162 ft 12 kts 240°
2026-04-26 13:28 13.57711 124.20512 162 ft 13 kts 240°
2026-04-26 13:28 13.57665 124.20428 162 ft 13 kts 240°
2026-04-26 13:28 13.57617 124.20342 162 ft 14 kts 240°
2026-04-26 13:29 13.57568 124.20253 162 ft 14 kts 240°
2026-04-26 13:29 13.57518 124.20161 162 ft 14 kts 240°
2026-04-26 13:29 13.57467 124.20068 162 ft 15 kts 240°
2026-04-26 13:29 13.57415 124.19973 162 ft 15 kts 240°
2026-04-26 13:30 13.57367 124.19886 162 ft 10 kts 240°
2026-04-26 13:30 13.57342 124.19841 162 ft 3 kts 238°
2026-04-26 13:30 13.57323 124.19825 162 ft 3 kts 210°
2026-04-26 13:30 13.57308 124.19806 162 ft 3 kts 258°
2026-04-26 13:31 13.57320 124.19788 162 ft 3 kts 349°
2026-04-26 13:31 13.57336 124.19805 162 ft 3 kts 89°
2026-04-26 13:31 13.57338 124.19832 162 ft 4 kts 73°
2026-04-26 13:31 13.57343 124.19842 162 ft 0 kts 61°
2026-04-26 13:32 13.57356 124.19868 162 ft 25 kts 61°
2026-04-26 13:32 13.57566 124.20250 162 ft 96 kts 60°
2026-04-26 13:32 13.58001 124.21036 208 ft 147 kts 60°
2026-04-26 13:32 13.58494 124.21957 741 ft 150 kts 69°
2026-04-26 13:33 13.58641 124.23010 1348 ft 153 kts 94°
2026-04-26 13:33 13.58295 124.24048 1957 ft 154 kts 119°
2026-04-26 13:33 13.57521 124.24862 2278 ft 168 kts 144°
2026-04-26 13:33 13.56403 124.25324 2605 ft 182 kts 168°
2026-04-26 13:34 13.55084 124.25346 2931 ft 197 kts 189°
2026-04-26 13:34 13.53772 124.24858 3329 ft 206 kts 212°
2026-04-26 13:34 13.52655 124.23888 3684 ft 217 kts 232°
2026-04-26 13:34 13.52082 124.23002 3903 ft 227 kts 246°
2026-04-26 13:35 13.51635 124.20824 4403 ft 245 kts 275°
2026-04-26 13:35 13.51784 124.19011 4824 ft 261 kts 279°
2026-04-26 13:35 13.51996 124.17113 5319 ft 275 kts 279°
2026-04-26 13:35 13.52193 124.15147 6097 ft 277 kts 278°
2026-04-26 13:36 13.52368 124.13169 6880 ft 280 kts 277°
2026-04-26 13:36 13.52529 124.11175 7684 ft 282 kts 277°
2026-04-26 13:36 13.52680 124.09187 8482 ft 284 kts 277°
2026-04-26 13:36 13.52825 124.07221 9292 ft 284 kts 276°
2026-04-26 13:37 13.52970 124.05180 10089 ft 285 kts 276°
2026-04-26 13:37 13.53113 124.03126 10690 ft 294 kts 276°
2026-04-26 13:37 13.53266 124.00954 11020 ft 311 kts 275°
2026-04-26 13:37 13.53423 123.98686 11329 ft 328 kts 275°
2026-04-26 13:38 13.53585 123.96330 11840 ft 336 kts 275°
2026-04-26 13:38 13.53750 123.93919 12540 ft 337 kts 275°
2026-04-26 13:38 13.53913 123.91529 13191 ft 340 kts 275°
2026-04-26 13:38 13.54078 123.89096 13808 ft 344 kts 274°
2026-04-26 13:39 13.54245 123.86634 14416 ft 347 kts 274°
2026-04-26 13:39 13.54412 123.84167 15004 ft 350 kts 274°
2026-04-26 13:39 13.54582 123.81649 15588 ft 353 kts 274°
2026-04-26 13:39 13.54751 123.79140 16152 ft 357 kts 274°
2026-04-26 13:40 13.54922 123.76596 16707 ft 360 kts 274°
2026-04-26 13:40 13.55097 123.74002 17257 ft 363 kts 274°
2026-04-26 13:40 13.55273 123.71388 17792 ft 367 kts 273°
2026-04-26 13:40 13.55450 123.68737 18317 ft 370 kts 273°
2026-04-26 13:41 13.55627 123.66107 18825 ft 373 kts 273°
2026-04-26 13:41 13.55805 123.63435 19326 ft 377 kts 273°
2026-04-26 13:41 13.55986 123.60724 19820 ft 380 kts 273°
2026-04-26 13:41 13.56169 123.57987 20306 ft 383 kts 273°
2026-04-26 13:42 13.56351 123.55244 20778 ft 386 kts 273°
2026-04-26 13:42 13.56534 123.52490 21239 ft 389 kts 273°
2026-04-26 13:42 13.56719 123.49700 21686 ft 393 kts 273°
2026-04-26 13:42 13.56906 123.46879 22127 ft 396 kts 273°
2026-04-26 13:43 13.57095 123.44024 22562 ft 399 kts 273°
2026-04-26 13:43 13.57283 123.41176 22990 ft 401 kts 273°
2026-04-26 13:43 13.57471 123.38324 23500 ft 401 kts 273°
2026-04-26 13:43 13.57660 123.35448 24066 ft 400 kts 273°
2026-04-26 13:44 13.57850 123.32561 24579 ft 400 kts 272°
2026-04-26 13:44 13.58084 123.29705 24997 ft 403 kts 276°
2026-04-26 13:44 13.58649 123.26839 25415 ft 406 kts 284°
2026-04-26 13:44 13.59582 123.24103 25815 ft 409 kts 292°
2026-04-26 13:45 13.60789 123.21435 25940 ft 411 kts 295°
2026-04-26 13:45 13.62059 123.18794 25943 ft 411 kts 295°
2026-04-26 13:45 13.63326 123.16182 25945 ft 411 kts 295°
2026-04-26 13:45 13.64597 123.13552 25945 ft 411 kts 295°
2026-04-26 13:46 13.65862 123.10921 25946 ft 411 kts 295°
2026-04-26 13:46 13.67129 123.08279 25946 ft 411 kts 295°
2026-04-26 13:46 13.68396 123.05630 25946 ft 410 kts 295°
2026-04-26 13:46 13.69645 123.03014 25946 ft 410 kts 295°
2026-04-26 13:47 13.70904 123.00375 25946 ft 410 kts 295°
2026-04-26 13:47 13.72153 122.97755 25946 ft 410 kts 295°
2026-04-26 13:47 13.73403 122.95133 25946 ft 410 kts 295°
2026-04-26 13:47 13.74666 122.92481 25946 ft 410 kts 295°
2026-04-26 13:48 13.75916 122.89857 25946 ft 410 kts 295°
2026-04-26 13:48 13.77136 122.87296 25946 ft 410 kts 294°
2026-04-26 13:48 13.78182 122.85098 25946 ft 410 kts 294°
2026-04-26 13:48 13.79436 122.82463 25946 ft 410 kts 294°
2026-04-26 13:49 13.80689 122.79828 25946 ft 410 kts 294°
2026-04-26 13:49 13.81946 122.77183 25946 ft 410 kts 294°
2026-04-26 13:49 13.83206 122.74529 25946 ft 410 kts 294°
2026-04-26 13:49 13.84461 122.71885 25946 ft 410 kts 294°
2026-04-26 13:50 13.85720 122.69232 25946 ft 410 kts 294°
2026-04-26 13:50 13.86966 122.66607 25946 ft 410 kts 294°
2026-04-26 13:50 13.88218 122.63968 25946 ft 410 kts 295°
2026-04-26 13:50 13.89461 122.61349 25946 ft 410 kts 294°
2026-04-26 13:51 13.90711 122.58711 25946 ft 410 kts 295°
2026-04-26 13:51 13.91960 122.56076 25946 ft 410 kts 294°
2026-04-26 13:51 13.93221 122.53416 25946 ft 410 kts 295°
2026-04-26 13:51 13.94505 122.50705 25946 ft 410 kts 294°
2026-04-26 13:52 13.95771 122.48032 25946 ft 410 kts 295°
2026-04-26 13:52 13.97028 122.45377 25946 ft 410 kts 295°
2026-04-26 13:52 13.98275 122.42742 25946 ft 410 kts 295°
2026-04-26 13:52 13.99524 122.40102 25946 ft 410 kts 295°
2026-04-26 13:53 14.00776 122.37455 25946 ft 410 kts 294°
2026-04-26 13:53 14.01982 122.34903 25946 ft 410 kts 294°
2026-04-26 13:53 14.03249 122.32225 25946 ft 410 kts 294°
2026-04-26 13:53 14.04459 122.29664 25946 ft 410 kts 294°
2026-04-26 13:54 14.05711 122.27013 25946 ft 410 kts 294°
2026-04-26 13:54 14.06958 122.24374 25946 ft 410 kts 294°
2026-04-26 13:54 14.08216 122.21708 25946 ft 410 kts 294°
2026-04-26 13:55 14.10711 122.16420 25946 ft 410 kts 294°
2026-04-26 13:55 14.11536 122.14670 25946 ft 410 kts 294°
2026-04-26 13:55 14.14461 122.08465 25433 ft 413 kts 294°
2026-04-26 13:56 14.15709 122.05817 24837 ft 412 kts 294°
2026-04-26 13:56 14.16970 122.03141 24225 ft 412 kts 294°
2026-04-26 13:56 14.18227 122.00472 23720 ft 407 kts 294°
2026-04-26 13:56 14.19447 121.97881 23596 ft 392 kts 294°
2026-04-26 13:57 14.20614 121.95404 23500 ft 376 kts 294°
2026-04-26 13:57 14.21746 121.92999 23393 ft 362 kts 294°
2026-04-26 13:57 14.22805 121.90668 23092 ft 355 kts 292°
2026-04-26 13:57 14.23787 121.88378 22681 ft 351 kts 291°
2026-04-26 13:58 14.24773 121.86052 22296 ft 347 kts 291°
2026-04-26 13:58 14.25751 121.83751 21919 ft 343 kts 292°
2026-04-26 13:58 14.26605 121.81480 21489 ft 338 kts 280°
2026-04-26 13:58 14.26816 121.79087 20998 ft 336 kts 269°
2026-04-26 13:59 14.26784 121.76685 20454 ft 337 kts 268°
2026-04-26 13:59 14.26736 121.74292 19885 ft 338 kts 268°
2026-04-26 13:59 14.26709 121.71871 19400 ft 337 kts 269°
2026-04-26 14:00 14.26728 121.64812 18339 ft 322 kts 270°
2026-04-26 14:00 14.26748 121.62521 17986 ft 317 kts 270°
2026-04-26 14:00 14.26763 121.61011 17727 ft 315 kts 270°
2026-04-26 14:01 14.26796 121.57990 17178 ft 312 kts 270°
2026-04-26 14:01 14.26821 121.55771 16775 ft 310 kts 270°
2026-04-26 14:01 14.26846 121.53525 16367 ft 308 kts 270°
2026-04-26 14:01 14.26872 121.51335 15969 ft 306 kts 271°
2026-04-26 14:02 14.26897 121.49138 15570 ft 304 kts 271°
2026-04-26 14:02 14.26922 121.46969 15177 ft 302 kts 271°
2026-04-26 14:02 14.26947 121.44809 14784 ft 300 kts 271°
2026-04-26 14:02 14.26972 121.42663 14393 ft 298 kts 271°
2026-04-26 14:03 14.26996 121.40528 13998 ft 296 kts 271°
2026-04-26 14:03 14.27021 121.38396 13568 ft 296 kts 271°
2026-04-26 14:03 14.27045 121.36269 13062 ft 297 kts 272°
2026-04-26 14:03 14.27068 121.34138 12642 ft 296 kts 272°
2026-04-26 14:04 14.27092 121.32017 12253 ft 294 kts 272°
2026-04-26 14:04 14.27115 121.29919 11880 ft 291 kts 272°
2026-04-26 14:04 14.27140 121.27843 11515 ft 288 kts 272°
2026-04-26 14:04 14.27164 121.25824 11159 ft 285 kts 271°
2026-04-26 14:05 14.27188 121.23790 10800 ft 282 kts 271°
2026-04-26 14:05 14.27211 121.21774 10441 ft 279 kts 271°
2026-04-26 14:05 14.27233 121.19780 10080 ft 277 kts 270°
2026-04-26 14:05 14.27254 121.17846 9725 ft 275 kts 270°
2026-04-26 14:06 14.27275 121.15832 9349 ft 273 kts 270°
2026-04-26 14:06 14.27297 121.13879 8978 ft 272 kts 269°
2026-04-26 14:06 14.27315 121.11943 8613 ft 271 kts 269°
2026-04-26 14:06 14.27334 121.10011 8253 ft 269 kts 269°
2026-04-26 14:07 14.27336 121.09010 8073 ft 269 kts 272°
2026-04-26 14:07 14.27342 121.07763 7864 ft 267 kts 272°
2026-04-26 14:07 14.27364 121.05840 7549 ft 265 kts 272°
2026-04-26 14:07 14.27388 121.03973 7239 ft 263 kts 272°
2026-04-26 14:08 14.27410 121.02084 6920 ft 261 kts 272°
2026-04-26 14:08 14.27431 121.00234 6604 ft 260 kts 272°
2026-04-26 14:08 14.27450 120.98370 6284 ft 260 kts 272°
2026-04-26 14:08 14.27397 120.96468 5979 ft 266 kts 268°
2026-04-26 14:09 14.27318 120.94557 5481 ft 270 kts 274°
2026-04-26 14:09 14.27762 120.92698 5160 ft 264 kts 293°
2026-04-26 14:09 14.28518 120.90982 5011 ft 261 kts 297°
2026-04-26 14:09 14.29304 120.89340 4848 ft 252 kts 297°
2026-04-26 14:10 14.29570 120.88791 4792 ft 249 kts 297°
2026-04-26 14:10 14.30359 120.87263 4619 ft 242 kts 297°
2026-04-26 14:10 14.31161 120.85789 4470 ft 235 kts 297°
2026-04-26 14:10 14.31963 120.84333 4316 ft 228 kts 298°
2026-04-26 14:11 14.33474 120.81573 4014 ft 212 kts 299°
2026-04-26 14:11 14.34431 120.80462 3765 ft 213 kts 329°
2026-04-26 14:11 14.35840 120.80101 3578 ft 204 kts
2026-04-26 14:12 14.37200 120.80500 3157 ft 206 kts 24°
2026-04-26 14:12 14.38479 120.81135 2902 ft 199 kts 32°
2026-04-26 14:12 14.39516 120.82004 2717 ft 188 kts 49°
2026-04-26 14:12 14.40301 120.83041 2550 ft 177 kts 58°
2026-04-26 14:13 14.41491 120.85052 2495 ft 158 kts 63°
2026-04-26 14:13 14.42031 120.86022 2509 ft 156 kts 63°
2026-04-26 14:13 14.42532 120.86931 2515 ft 157 kts 63°
2026-04-26 14:14 14.43078 120.87919 2522 ft 155 kts 63°
2026-04-26 14:14 14.43612 120.88884 2490 ft 154 kts 63°
2026-04-26 14:14 14.44143 120.89844 2328 ft 153 kts 63°
2026-04-26 14:14 14.44665 120.90783 2128 ft 147 kts 63°
2026-04-26 14:15 14.45165 120.91684 1906 ft 143 kts 63°
2026-04-26 14:15 14.45657 120.92572 1720 ft 144 kts 63°
2026-04-26 14:15 14.46149 120.93459 1541 ft 140 kts 63°
2026-04-26 14:15 14.46636 120.94336 1345 ft 139 kts 63°
2026-04-26 14:16 14.47111 120.95194 1171 ft 138 kts 62°
2026-04-26 14:16 14.47591 120.96059 983 ft 138 kts 62°
2026-04-26 14:16 14.48073 120.96925 789 ft 138 kts 63°
2026-04-26 14:16 14.48546 120.97778 617 ft 138 kts 63°
2026-04-26 14:17 14.49024 120.98640 441 ft 137 kts 62°
2026-04-26 14:17 14.49494 120.99487 257 ft 136 kts 62°
2026-04-26 14:17 14.49963 121.00328 89 ft 132 kts 63°
2026-04-26 14:17 14.50349 121.01028 84 ft 88 kts 62°
2026-04-26 14:18 14.50567 121.01421 84 ft 38 kts 59°
2026-04-26 14:18 14.50663 121.01595 84 ft 20 kts 59°
2026-04-26 14:18 14.50725 121.01677 84 ft 12 kts 46°
2026-04-26 14:18 14.50792 121.01739 84 ft 13 kts 38°
2026-04-26 14:19 14.50840 121.01778 84 ft 6 kts 37°
2026-04-26 14:19 14.50884 121.01788 84 ft 7 kts 343°
2026-04-26 14:19 14.50924 121.01753 84 ft 8 kts 316°
2026-04-26 14:19 14.50967 121.01709 84 ft 9 kts 315°
2026-04-26 14:20 14.51015 121.01659 84 ft 10 kts 315°
2026-04-26 14:20 14.51068 121.01605 84 ft 11 kts 315°
2026-04-26 14:20 14.51120 121.01551 84 ft 8 kts 315°
2026-04-26 14:20 14.51160 121.01510 84 ft 6 kts 315°
2026-04-26 14:21 14.51181 121.01487 84 ft 1 kts 315°
2026-04-26 14:21 14.51184 121.01484 84 ft 0 kts 315°
2026-04-26 14:21 14.51188 121.01480 84 ft 1 kts 315°
2026-04-26 14:22 14.51203 121.01464 84 ft 4 kts 315°
2026-04-26 14:22 14.51232 121.01436 84 ft 6 kts 322°
2026-04-26 14:22 14.51277 121.01432 84 ft 7 kts 22°
2026-04-26 14:22 14.51310 121.01473 84 ft 7 kts 64°
2026-04-26 14:23 14.51343 121.01514 84 ft 7 kts 41°
2026-04-26 14:23 14.51381 121.01549 84 ft 7 kts 43°
2026-04-26 14:23 14.51420 121.01584 84 ft 7 kts 37°
2026-04-26 14:23 14.51461 121.01611 84 ft 6 kts 36°
2026-04-26 14:24 14.51496 121.01645 84 ft 7 kts 45°
2026-04-26 14:24 14.51534 121.01684 84 ft 8 kts 45°
2026-04-26 14:24 14.51580 121.01731 84 ft 9 kts 45°
2026-04-26 14:24 14.51624 121.01775 84 ft 7 kts 37°
2026-04-26 14:25 14.51675 121.01785 84 ft 7 kts 347°
2026-04-26 14:25 14.51721 121.01750 84 ft 8 kts 315°
2026-04-26 14:25 14.51761 121.01709 84 ft 8 kts 315°
2026-04-26 14:25 14.51798 121.01670 84 ft 5 kts 315°
2026-04-26 14:26 14.51812 121.01641 84 ft 4 kts 262°
2026-04-26 14:26 14.51793 121.01622 84 ft 3 kts 200°
2026-04-26 14:26 14.51769 121.01614 84 ft 3 kts 197°
2026-04-26 14:26 14.51747 121.01608 84 ft 3 kts 196°
2026-04-26 14:27 14.51734 121.01604 84 ft 0 kts 197°
2026-04-26 14:27 14.51733 121.01603 84 ft 0 kts 197°